Regional Weather Roundup
Issued by NWS

Home | Current Version | Previous Version | Text Only | Print | Product List | Glossary Off
Versions: 1 2 3 4 5 6 7 8 9 10 11 12 13 14 15 16 17 18 19 20 21 22 23 24 25 26 27 28 29 30 31 32 33 34 35 36 37 38 39 40 41 42 43 44 45 46 47 48 49 50

000
ASUS43 KDTX 270710
RWRMI
MICHIGAN HOURLY REGIONAL WEATHER ROUNDUP
NATIONAL WEATHER SERVICE DETROIT/PONTIAC MI
ISSUED BY NATIONAL WEATHER SERVICE GRAND RAPIDS MI
300 AM EDT TUE JUN 27 2017

NOTE: "FAIR" INDICATES FEW OR NO CLOUDS BELOW 12,000 FEET WITH NO
SIGNIFICANT WEATHER AND/OR OBSTRUCTION TO VISIBILITY.

MIZ047>049-052>055-059>063-066>070-074>076-081>083-270800-
SOUTHEAST LOWER MICHIGAN

CITY           SKY/WX    TMP DP  RH WIND       PRES   REMARKS
ADRIAN         CLEAR     51  45  79 W6        30.04S
ALMA           CLOUDY    53  50  90 W3        30.03R
ANN ARBOR      CLEAR     49  46  90 SW8       30.01S
BAD AXE        PTCLDY    52  48  87 NW8       29.95S
DETROIT CITY   PTCLDY    54  46  74 W8        29.98S
DETROIT        PTCLDY    53  46  77 W10       30.00S
FLINT          CLOUDY    53  48  83 W14       29.99S
GROSSE ILE     PTCLDY    53  46  76 NW7       29.99R
HILLSDALE      CLEAR     48  43  81 W7        30.03S
HOWELL         MOCLDY    51  45  81 W8        30.00S

CITY           SKY/WX    TMP DP  RH WIND       PRES   REMARKS
JACKSON        CLOUDY    52  46  80 W8        30.03S
LANSING        LGT RAIN  55  47  74 NW9       30.03R
MASON          CLOUDY    53  48  83 W9        30.01F
MONROE         CLEAR     53  46  76 W7        30.01R
MT. CLEMENS    CLOUDY    55  47  74 W8        29.95S
PONTIAC        PTCLDY    51  47  86 W12       29.98R
PORT HOPE        N/A     55  49  80 NW8G18    29.93S
PORT HURON     PTCLDY    50  45  81 SW3       29.96S
TRI CITIES     CLOUDY    54  48  80 NW8       30.00R
YPSILANTI      PTCLDY    54  47  77 W12       30.01S
$$
MIZ043>046-050>051-056>058-064>065-071>073-077>080-270800-
SOUTHWEST LOWER MICHIGAN

CITY           SKY/WX    TMP DP  RH WIND       PRES   REMARKS
BATTLE CREEK   MOCLDY    52  48  86 W7        30.05R
BENTON HARBOR  MOCLDY    59  49  69 VRB7      30.07S
BIG RAPIDS     CLOUDY    48  46  91 W5        30.02F
COLDWATER      CLEAR     49  46  88 SW5       30.04S
HOLLAND        CLEAR     55  47  74 N5        30.06S
GRAND RAPIDS   PTCLDY    53  50  89 NW8       30.04S
KALAMAZOO      PTCLDY    52  46  80 W6        30.05S
MARSHALL       MOCLDY    49  48  94 CALM      30.04R
MOUNT PLEASANT CLOUDY    53  50  92 W3        30.01S
MUSKEGON       CLEAR     50  49  96 CALM      30.06S
STURGIS        CLEAR     51  47  87 CALM      30.05S
$$
MIZ016>042-270800-
NORTHERN LOWER MICHIGAN

CITY           SKY/WX    TMP DP  RH WIND       PRES   REMARKS
ALPENA         CLOUDY    50  49  96 W7        29.94F
BEAVER ISLAND    N/A     45  44  99 CALM      29.99S FOG
BELLAIRE       MOCLDY    47  46  95 CALM      30.00S FOG
CADILLAC       CLEAR     45  44  97 CALM      30.01S
CHARLEVOIX     CLEAR     51  50  96 W5        30.02S
GAYLORD        CLOUDY    50  46  86 W6        29.98S
HOUGHTON LAKE  MOCLDY    51  48  89 NW8       29.99F
MANISTEE       FOG       45  43  93 CALM      30.03S VSB 3/4
OSCODA         DRIZZLE   51  48  90 NW8       29.94S
PELLSTON       MOCLDY    48  45  89 NW3       29.98S
TRAVERSE CITY  CLEAR     48  45  89 CALM      30.00S
LUDINGTON      PTCLDY    45  45 100 CALM      30.04S FOG
$$
MIZ007>008-015-270800-
EASTERN UPPER MICHIGAN

CITY           SKY/WX    TMP DP  RH WIND       PRES   REMARKS
KINROSS        CLEAR     42  42 100 W7        29.95S
MACKINAC ISLAN CLEAR     49  47  94 NW8G17    29.96S
NEWBERRY       CLEAR     46  45  97 W5        29.96F
S. S. MARIE    CLEAR     48  45  89 W6        29.94S
$$
MIZ004>006-011>014-085-270800-
CENTRAL UPPER MICHIGAN

CITY           SKY/WX    TMP DP  RH WIND       PRES   REMARKS
MANISTIQUE     CLEAR     45  41  88 CALM      29.98S
ESCANABA       CLEAR     47  46  97 W6        29.99F
MENOMINEE      CLEAR     50  48  93 W3        30.02S
SAWYER-GWINN   CLEAR     43  41  93 CALM      29.99S
$$
MIZ001>003-009>011-084-270800-
WESTERN UPPER MICHIGAN

CITY           SKY/WX    TMP DP  RH WIND       PRES   REMARKS
IRON MOUNTAIN  CLEAR     46  42  86 N3        30.00S
HOUGHTON       CLEAR     50  45  83 NW9       29.97F
COPPER HARBOR    N/A     54  46  74 W3        29.95F
IRONWOOD       CLOUDY    51  48  89 W6        30.04S
$$

ABBREVIATIONS USED IN REMARKS
   TC - TEMPERATURE IN CELSIUS
  WCI - WIND CHILL INDEX
   HX - HEAT INDEX
  VSB - VISIBILITY




USA.gov is the U.S. government's official web portal to all federal, state and local government web resources and services.